Regional Weather Roundup
Issued by NWS Wakefield, VA

Home | Current Version | Previous Version | Text Only | Print | Product List | Glossary Off
Versions: 1 2 3 4 5 6 7 8 9 10 11 12 13 14 15 16 17 18 19 20 21 22 23 24 25 26 27

000
ASUS41 KAKQ 290215
RWRAKQ

REGIONAL WEATHER ROUNDUP
NATIONAL WEATHER SERVICE WAKEFIELD VA
1000 PM EDT WED SEP 28 2016

Note: "fair" indicates few or no clouds below 12,000 feet with no
significant weather and/or obstructions to visibility. * = Denotes
station may not report precipitation (e.g., rain,snow,etc.),
thunder or fog.

VAZ042-051-052>054-056-290300-
NORTHERN VIRGINIA

CITY           SKY/WX    TMP DP  RH WIND       PRES   REMARKS
WASH NATIONAL  TSTM      70  69  97 E13       30.04S
DULLES         LGT RAIN  68  66  93 E13G23    30.02F
FORT BELVOIR   DRIZZLE   69  67  93 VRB5      30.01F
QUANTICO       LGT RAIN  70  67  90 E10       30.01S
FREDERICKSBRG* CLOUDY    69  69 100 SE8       29.99S
STAFFORD*      CLOUDY    68  68 100 E12G17    30.04S
WARRENTON      RAIN      69  64  84 E8        29.99S
CULPEPER*      CLOUDY    69  68  99 CALM      30.00S
MANASSAS*      CLOUDY    70  70 100 E8        30.00F
LEESBURG*      LGT RAIN  68  68 100 E8G16     30.03S
WINCHESTER     CLOUDY    66  64  94 E5        30.03S
FRONT ROYAL*   CLOUDY    63  63 100 NW3       30.01F
LURAY*         MOCLDY   N/A N/A N/A N7        30.01S
$$

VAZ048-049-060>072-079>083-290300-
CENTRAL AND SOUTH CENTRAL VIRGINIA

CITY           SKY/WX    TMP DP  RH WIND       PRES   REMARKS
RICHMOND       TSTM      66  64  93 E9        29.99R FOG
CHESTERFIELD*  CLOUDY    66  54  63 E7        29.98S THUNDER
PETERSBURG*    TSTM     N/A N/A N/A NE14      29.98F
HANOVER        NOT AVBL
TAPPAHANNOCK*  CLOUDY    67  67 100 E6        30.01F
QUINTON*       CLOUDY    66  66 100 E9        29.98F
CHARLOTTSVILLE CLOUDY    67  64  90 NE7       29.98F HAZE
GORDONSVILLE*  CLOUDY    66  66 100 N3        29.98F
ORANGE*          N/A     68  68 100 CALM      30.01F
LOUISA*        LGT RAIN  72  70  94 CALM      29.96F
BUMPASS*       CLOUDY    67  67 100 E5        29.98F
FARMVILLE*     CLOUDY    70  68  95 NE6       29.96R
CREWE*         CLOUDY    69  69 100 CALM      29.97R
FORT PICKETT*  CLOUDY    69  66  88 CALM      29.97R
CHASE CITY*    FAIR      69  67  94 SE3       29.96F
CLARKSVILLE*   MOCLDY    68  68 100 CALM      29.97R
SOUTH HILL*    MOCLDY    71  70  99 CALM      30.03R
LAWRENCEVILLE* CLOUDY    72  70  93 CALM      29.98R
EMPORIA*         N/A     72  70  94 E5        29.98R
$$

VAZ088>098-290300-
SOUTHEAST VIRGINIA

CITY           SKY/WX    TMP DP  RH WIND       PRES   REMARKS
NORFOLK        PTCLDY    74  70  87 SE10      30.00F
VIRGINIA BEACH CLOUDY    74  69  85 SE8       30.00F
NORFOLK NAVAL  MOCLDY    75  70  84 SE8       30.01S
WEST POINT*    CLOUDY    65  64  96 NE10      30.03F VSB 1/2
SALUDA*        CLOUDY    67  67 100 N18G25    30.01S VSB 1
NEWPORT NEWS   PTCLDY    75  69  81 SE13      29.99S
LANGLEY AFB    CLOUDY    75  70  85 SE10      29.99S
FORT EUSTIS    CLOUDY    74  69  84 SE12      29.95F
WILLIAMSBURG*  CLOUDY    73  70  88 N3        30.01R
HR EXEC AP*    FAIR      72  68  88 SE7       30.01F
FRANKLIN*      CLOUDY    72  69  92 E7        29.98R
US460-WAKEFLD  CLOUDY    71  68  90 VRB3      29.98R
$$

VAZ020-022-025-037-045-290300-
WEST CENTRAL AND SOUTHWEST VIRGINIA

CITY           SKY/WX    TMP DP  RH WIND       PRES   REMARKS
STAUNTON*      DRIZZLE   64  62  91 NE7       30.02S
WAYNESBORO*    CLOUDY    64  63  95 CALM      30.00F
HOT SPRINGS VA HVY RAIN  60  60 100 E7        30.04S VSB<1/4
LYNCHBURG      CLOUDY    67  65  93 CALM      29.99R
DANVILLE       CLOUDY    67  65  93 VRB7      29.94F
SOUTH BOSTON*  FAIR      68  66  94 S7        29.96F
MARTINSVILLE   CLOUDY    67  64  89 CALM      29.97S
ROANOKE        CLOUDY    67  64  90 SE10      29.96F THUNDER
BLACKSBURG     HVY RAIN  62  61  96 S7        30.01R VSB 1/2
DUBLIN*        MOCLDY    65  62  90 CALM      29.98S
MARION*        CLEAR     59  56  89 CALM      30.01R
HILLSVILLE*    LGT RAIN  65  65 100 CALM      29.98S
RICHLANDS*     FAIR      65  46  50 S3        29.98F
WISE*          CLEAR     59  45  58 N8G16     30.03R
ABINGDON*      CLEAR     60  50  69 CALM      29.97R
$$

MDZ021>025-VAZ099-100-290300-
SOUTHERN MARYLAND AND THE DELMARVA PENINSULA

CITY           SKY/WX    TMP DP  RH WIND       PRES   REMARKS
PATUXENT RIVER TSTM      70  69  97 E16G25    30.05R
BAY BRIDGE APT LGT RAIN  68  66  94 MISG      30.07R
LEONARDTOWN    CLOUDY    70  68  94 E10G21    30.07R
DOVER          DRIZZLE   66  66 100 E21G32    30.10S
GEORGETOWN     TSTM      69  67  93 NE10      30.11R
EASTON         LGT RAIN  68  66  94 E13G23    30.08
CAMBRIDGE      CLOUDY    68  66  94 E9        30.06R
SALISBURY      LGT RAIN  70  69  97 NE12      30.07R
OCEAN CITY     CLOUDY    72  68  87 E15G26    30.06F
WALLOPS ISLAND CLOUDY    73  72  96 E13       30.05S
ACCOMACK*      CLOUDY    74  70  88 E7G17     30.03R
$$

NCZ012>017-030>032-290300-
NORTH CENTRAL AND EASTERN NORTH CAROLINA

CITY           SKY/WX    TMP DP  RH WIND       PRES   REMARKS
ROANOKE RAPIDS LGT RAIN  72  72 100 S6        29.95R
RALEIGH        CLOUDY    71  66  84 N6        29.98R
ELIZABETH CITY CLEAR     74  71  91 SE9       30.01S
AHOSKIE*       CLOUDY    72  70  93 SE6       29.96S
EDENTON*       CLEAR     76  76 100 SE9       30.00F
CURRITUCK*     NOT AVBL
KILL DEVIL HLS CLEAR     74  73  97 SE3       30.01S
MANTEO         CLEAR     73  72  95 SE7       30.03S
CAPE HATTERAS  PTCLDY    75  73  93 E6        30.02S
TARBORO*       FAIR      74  71  89 S5        29.97R
GOLDSBORO      PTCLDY    75  75 100 SE8       29.94F
WASHINGTON     CLEAR     73  68  84 SE7       29.99F
GREENVILLE     CLEAR     75  72  88 S15       29.98F
NEW BERN       CLEAR     74  69  85 SE5       30.01S
WILMINGTON     CLEAR     77  70  79 SE5       29.99R
$$

VAZ048-290300-
ELSEWHERE

CITY           SKY/WX    TMP DP  RH WIND       PRES   REMARKS
HARRISBURG PA  LGT RAIN  64  61  90 E17       30.11R
BALTIMORE      CLOUDY    66  63  90 E17G30    30.07R
ANNAPOLIS      CLOUDY    69  66  90 E10G21    30.07R
ANDREWS AFB    TSTM      68  66  94 E9G18     30.03F FOG
PHILADELPHIA   LGT RAIN  63  60  90 E15       30.16F
HENDERSON NC   CLOUDY    68  66  94 CALM      29.98R
GREENSBORO     CLOUDY    68  68 100 SE10      29.93S THUNDER
ROCKY MOUNT    CLOUDY    72  72 100 CALM      29.97R
$$

VAZ100-290300-
MARINE

STATION/POSITION TIME  TEMP    WIND        PRES    WAVE   SWELL
                       AIR SEA DIR/SP/G            HT/PER HT/PER
                 (UTC) (F)     (DEG/KT/KT) (MB)    (FT/S) (FT/S)
BRANDYWINE LGT   0148   68      80/ 25/ 31   N/A
CAPE MAY NJ      0148   67 72   70/ 13/ 20 1019.2F
LEWES DE         0148   69 71   70/ 24/ 28 1019.2F
OCEAN-CITY-INLET 0148   71 73   90/ 13/ 21 1018.9R
WACHAPREAGUE VA  0148   74 74   70/ 12/ 15 1016.9R
THOMAS POINT MD  0200   69 73  100/ 20/ 23 1019.1R
GOOSES REEF MD   0150   71     120/ 21/ 25 1017.1S
COVE POINT MD    0148   70     120/ 18/ 24 1017.4S
SOLOMONS ISLAND  0148   71 74   90/ 17/ 21   N/A
BISHOPS HEAD MD  0148   70 71   80/ 14/ 16 1017.9R
PINEY POINT MD   0142          120/ 10/ 12   N/A
POTOMAC MD       0150   72      80/ 16/ 21 1016.0R
CAMBRIDGE MD     0148   69 73   80/ 16/ 19 1017.0R
LEWISETTA VA     0148   69 72  210/  6/  8 1017.4R
RAPPAHANNOCK LGT 0142           90/ 15/ 17 1017.0R
STINGRAY PT      0150   71     340/ 14/ 17 1016.8R
YORK RVR RNG VA  0148   76     170/ 18/ 21 1015.1F
YORKTOWN VA      0148   75 76  140/  9/ 13 1015.1S
JAMESTOWN VA     0150   74      30/ 10/ 14   N/A
DOMINION TERM VA 0148   75     130/ 15/ 17 1015.4F
KIPTOPEKE VA     0142      76  130/ 12/ 15   N/A
CHES BAY BRIDGE  0148   76 76  120/ 11/ 16 1015.7F
CAPE HENRY VA    0148   75     130/ 12/ 15   N/A
WILLOUBY STN VA  0148   75     120/ 13/ 14   N/A
CAPE HENRY BUOY  0142      76                N/A     4/ 7   2/11
1ST LANDING BUOY 0150   76     160/ 16/ 19 1015.7F
CAPE CHARLES BUO 0056      76                N/A     4/ 8   2/12
OFFSHORE WE BUOY 0051      76                N/A     4/ 8   2/11
64NM E OF VA BCH 0150   75 75  120/  6/  8 1016.7R   5/ 8   5/ 8
DUCK PIER NC     0148   76 77  140/ 13/ 15 1015.7F
44056 DUCK FRF   0141      77                N/A     3/11   2/11
OREGON INLET NC  0148   75 79  120/  5/  8 1016.5R
HATTERAS NC      0148   77 78  110/  6/  9 1016.1F
DIAMOND SHLS NC  0150   81 84  140/ 10/ 12 1016.6F   4/ 7   3/ 7
CAPE LOOKOUT NC  0200   80     140/ 10/ 11 1015.7F
$$




USA.gov is the U.S. government's official web portal to all federal, state and local government web resources and services.